Regional Weather Roundup
Issued by NWS

Home | Current Version | Previous Version | Text Only | Print | Product List | Glossary Off
Versions: 1 2 3 4 5 6 7 8 9 10 11 12 13 14 15 16 17 18 19 20 21 22 23 24 25 26 27 28 29 30 31 32 33 34 35 36 37 38 39 40 41 42 43 44 45 46 47 48 49 50

598
ASUS43 KLMK 142102
RWRKY
KENTUCKY REGIONAL WEATHER ROUNDUP
NATIONAL WEATHER SERVICE LOUISVILLE KY
400 PM EST SUN FEB 14 2016

NOTE "FAIR" INDICATES FEW OR NO CLOUDS BELOW 12,000 FEET
WITH NO SIGNIFICANT WEATHER AND/OR OBSTRUCTIONS TO VISIBILITY.

KYZ001>023-026-027-061>063-070>075-142200-
WESTERN AND SOUTH CENTRAL KENTUCKY

CITY           SKY/WX    TMP DP  RH WIND       PRES   REMARKS
PADUCAH        MIX PCPN  28  25  88 SE6       30.03F FOG     WCI  22
HENDERSON      CLOUDY    23  18  80 SE8       30.08F WCI  14
OWENSBORO      LGT SNOW  24  21  88 E9        30.10F VSB 1   WCI  14
HOPKINSVILLE   NOT AVBL
BOWLING GREEN  LGT SNOW  26  23  88 E10       30.08F FOG     WCI  16
GLASGOW        NOT AVBL
$$

KYZ024-025-028>034-038-045-046-053-142200-
NORTH CENTRAL KENTUCKY

CITY           SKY/WX    TMP DP  RH WIND       PRES   REMARKS
LOUISVILLE/SDF HVY SNOW  21  17  84 E8        30.15F VSB 1/4 WCI  11
LOUISVILLE/LOU SNOW      21  17  84 E6        30.17F VSB 1/4 WCI  13
FORT KNOX      LGT SNOW  21  18  87 E12       30.09F FOG     WCI  10
$$

KYZ035>037-039>044-047>052-055>060-089>105-142200-
NORTHEAST KENTUCKY

CITY           SKY/WX    TMP DP  RH WIND       PRES   REMARKS
LEXINGTON      LGT SNOW  20  15  81 E12       30.16F WCI   8
COVINGTON      HVY SNOW  18  14  84 E14       30.17F VSB 1/4 WCI   4
FRANKFORT      LGT SNOW  21  16  81 E9        30.16F WCI  11
$$

KYZ054-064>069-076>088-106>120-142200-
SOUTHEAST KENTUCKY

CITY           SKY/WX    TMP DP  RH WIND       PRES   REMARKS
JACKSON        LGT SNOW  21  14  74 VRB3      30.19F
LONDON         SNOW      21  18  88 SE6       30.15F VSB 1/2 WCI  13
SOMERSET       NOT AVBL
MIDDLESBORO    NOT AVBL
MONTICELLO     LGT SNOW  24  21  88 E8        30.17F VSB 3/4 WCI  15
$$





USA.gov is the U.S. government's official web portal to all federal, state and local government web resources and services.